| time (UTC) | temp F | wind direction | speed knots | gust knots | rain 1hr in | rain 24hr in | rain mn in | humidity % | barometer mb |
| 20260902070039 | 58 | 210 | 0.0 | 4.3 | 0.00 | 0.00 | 0.00 | 89 | 1022.0 |
| 20260902065021 | 57 | 214 | 1.7 | 4.3 | 0.00 | 0.00 | 0.00 | 90 | 1022.0 |
| 20260902064538 | 57 | 237 | 0.9 | 3.5 | 0.00 | 0.00 | 0.00 | 90 | 1022.0 |
| 20260902064018 | 57 | 229 | 0.0 | 3.5 | 0.00 | 0.00 | 0.00 | 90 | 1022.0 |
| 20260902063519 | 57 | 225 | 0.0 | 4.3 | 0.00 | 0.00 | 0.00 | 90 | 1022.1 |
| 20260902063039 | 57 | 237 | 0.9 | 4.3 | 0.00 | 0.00 | 0.00 | 90 | 1022.2 |
| 20260902062520 | 56 | 0 | 0.9 | 4.3 | 0.00 | 0.00 | 0.00 | 90 | 1022.1 |
| 20260902062019 | 56 | 229 | 1.7 | 4.3 | 0.00 | 0.00 | 0.00 | 91 | 1022.1 |
| 20260902061554 | 56 | 235 | 1.7 | 4.3 | 0.00 | 0.00 | 0.00 | 91 | 1022.2 |
| 20260902061019 | 56 | 220 | 0.9 | 3.5 | 0.00 | 0.00 | 0.00 | 91 | 1022.3 |
| 20260902060519 | 56 | 217 | 0.0 | 3.5 | 0.00 | 0.00 | 0.00 | 91 | 1022.0 |
| 20260902060049 | 55 | 243 | 0.0 | 3.5 | 0.00 | 0.00 | 0.00 | 91 | 1022.0 |
| 20260902055517 | 55 | 0 | 0.0 | 1.7 | 0.00 | 0.00 | 0.00 | 91 | 1021.9 |
| 20260902055017 | 55 | 0 | 0.0 | 2.6 | 0.00 | 0.00 | 0.00 | 91 | 1022.0 |
| 20260902054553 | 55 | 0 | 0.0 | 2.6 | 0.00 | 0.00 | 0.00 | 91 | 1022.0 |
| 20260902053052 | 54 | 0 | 0.0 | 3.5 | 0.00 | 0.00 | 0.00 | 90 | 1022.0 |
| 20260902051538 | 54 | 221 | 0.0 | 2.6 | 0.00 | 0.00 | 0.00 | 90 | 1021.8 |
| 20260902051022 | 54 | 223 | 0.0 | 3.5 | 0.00 | 0.00 | 0.00 | 90 | 1021.8 |
| 20260902050519 | 54 | 0 | 0.0 | 3.5 | 0.00 | 0.00 | 0.00 | 89 | 1021.7 |
| 20260902050037 | 54 | 210 | 0.9 | 3.5 | 0.00 | 0.00 | 0.00 | 89 | 1021.7 |
| 20260902045519 | 54 | 214 | 0.0 | 2.6 | 0.00 | 0.00 | 0.00 | 89 | 1021.7 |
| 20260902045018 | 54 | 219 | 0.0 | 1.7 | 0.00 | 0.00 | 0.00 | 89 | 1021.7 |
| 20260902044539 | 54 | 0 | 0.0 | 3.5 | 0.00 | 0.00 | 0.00 | 89 | 1021.6 |
| 20260902043043 | 54 | 234 | 0.0 | 3.5 | 0.00 | 0.00 | 0.00 | 89 | 1021.6 |
| 20260902042521 | 54 | 240 | 0.0 | 3.5 | 0.00 | 0.00 | 0.00 | 89 | 1021.6 |
| 20260902042119 | 54 | 247 | 0.0 | 2.6 | 0.00 | 0.00 | 0.00 | 89 | 1021.6 |
| 20260902041540 | 54 | 0 | 0.0 | 2.6 | 0.00 | 0.00 | 0.00 | 89 | 1021.5 |
| 20260902041020 | 54 | 0 | 0.0 | 4.3 | 0.00 | 0.00 | 0.00 | 89 | 1021.5 |
| 20260902040519 | 54 | 249 | 0.0 | 5.2 | 0.00 | 0.00 | 0.00 | 89 | 1021.5 |
| 20260902040047 | 54 | 253 | 0.9 | 5.2 | 0.00 | 0.00 | 0.00 | 89 | 1021.6 |
| 20260902035517 | 54 | 220 | 0.0 | 2.6 | 0.00 | 0.00 | 0.00 | 89 | 1021.4 |
| 20260902035017 | 54 | 0 | 0.0 | 2.6 | 0.00 | 0.00 | 0.00 | 89 | 1021.4 |
| 20260902034541 | 54 | 0 | 0.0 | 1.7 | 0.00 | 0.00 | 0.00 | 89 | 1021.4 |
| 20260902033037 | 54 | 224 | 0.0 | 2.6 | 0.00 | 0.00 | 0.00 | 89 | 1021.6 |
| 20260902032520 | 54 | 0 | 0.0 | 2.6 | 0.00 | 0.00 | 0.00 | 89 | 1021.6 |
| 20260902031543 | 54 | 231 | 0.0 | 1.7 | 0.00 | 0.00 | 0.00 | 89 | 1021.7 |
| 20260902031017 | 54 | 0 | 0.0 | 0.9 | 0.00 | 0.00 | 0.00 | 89 | 1021.8 |
| 20260902030518 | 54 | 0 | 0.0 | 0.0 | 0.00 | 0.00 | 0.00 | 89 | 1021.7 |
| 20260902030039 | 54 | 0 | 0.0 | 0.9 | 0.00 | 0.00 | 0.00 | 89 | 1021.8 |
| 20260902025519 | 54 | 0 | 0.0 | 2.6 | 0.00 | 0.00 | 0.00 | 89 | 1021.8 |
| 20260902025019 | 54 | 0 | 0.0 | 2.6 | 0.00 | 0.00 | 0.00 | 89 | 1022.0 |
| 20260902024539 | 54 | 0 | 0.0 | 2.6 | 0.00 | 0.00 | 0.00 | 89 | 1022.0 |
| 20260902023042 | 54 | 0 | 0.0 | 1.7 | 0.00 | 0.00 | 0.00 | 89 | 1021.8 |
| 20260902022520 | 54 | 0 | 0.0 | 1.7 | 0.00 | 0.00 | 0.00 | 89 | 1021.8 |
| 20260902022019 | 54 | 0 | 0.0 | 1.7 | 0.00 | 0.00 | 0.00 | 89 | 1022.0 |
| 20260902021539 | 54 | 0 | 0.0 | 0.0 | 0.00 | 0.00 | 0.00 | 89 | 1022.1 |
| 20260902021019 | 54 | 0 | 0.0 | 2.6 | 0.00 | 0.00 | 0.00 | 89 | 1022.2 |
| 20260902020520 | 54 | 0 | 0.0 | 2.6 | 0.00 | 0.00 | 0.00 | 89 | 1022.1 |
| 20260902020038 | 54 | 0 | 0.0 | 0.0 | 0.00 | 0.00 | 0.00 | 89 | 1022.2 |
| 20260902015517 | 54 | 0 | 0.0 | 0.0 | 0.00 | 0.00 | 0.00 | 89 | 1022.0 |
| 20260902015017 | 54 | 0 | 0.0 | 2.6 | 0.00 | 0.00 | 0.00 | 89 | 1022.0 |
| 20260902014537 | 54 | 0 | 0.0 | 2.6 | 0.00 | 0.00 | 0.00 | 89 | 1022.0 |
| 20260902014020 | 54 | 239 | 0.9 | 2.6 | 0.00 | 0.00 | 0.00 | 89 | 1022.0 |
| 20260902013516 | 54 | 239 | 0.9 | 2.6 | 0.00 | 0.00 | 0.00 | 89 | 1022.0 |
| 20260902013043 | 54 | 0 | 0.0 | 2.6 | 0.00 | 0.00 | 0.00 | 89 | 1021.9 |
| 20260902011547 | 54 | 0 | 0.0 | 1.7 | 0.00 | 0.00 | 0.00 | 88 | 1022.1 |
| 20260902010037 | 54 | 0 | 0.0 | 1.7 | 0.00 | 0.00 | 0.00 | 88 | 1022.1 |
| 20260902005520 | 54 | 239 | 0.0 | 1.7 | 0.00 | 0.00 | 0.00 | 88 | 1022.0 |
| 20260902005021 | 54 | 0 | 0.0 | 0.9 | 0.00 | 0.00 | 0.00 | 88 | 1022.1 |
| 20260902004539 | 54 | 0 | 0.0 | 0.9 | 0.00 | 0.00 | 0.00 | 88 | 1022.3 |
| 20260902004020 | 54 | 0 | 0.0 | 1.7 | 0.00 | 0.00 | 0.00 | 88 | 1022.3 |
| 20260902003519 | 54 | 0 | 0.0 | 3.5 | 0.00 | 0.00 | 0.00 | 88 | 1022.4 |
| 20260902003042 | 54 | 239 | 0.9 | 3.5 | 0.00 | 0.00 | 0.00 | 88 | 1022.3 |
| 20260902002516 | 54 | 0 | 0.9 | 2.6 | 0.00 | 0.00 | 0.00 | 88 | 1022.2 |
| 20260902000040 | 54 | 0 | 0.0 | 0.0 | 0.00 | 0.00 | 0.00 | 87 | 1022.1 |
| 20260901235520 | 54 | 0 | 0.0 | 0.0 | 0.00 | 0.00 | 0.00 | 87 | 1022.1 |
| 20260901235020 | 54 | 0 | 0.0 | 0.0 | 0.00 | 0.00 | 0.00 | 87 | 1022.2 |
| 20260901234538 | 54 | 0 | 0.0 | 0.0 | 0.00 | 0.00 | 0.00 | 86 | 1022.2 |
| 20260901234022 | 54 | 0 | 0.0 | 1.7 | 0.00 | 0.00 | 0.00 | 86 | 1022.2 |
| 20260901233517 | 54 | 0 | 0.0 | 2.6 | 0.00 | 0.00 | 0.00 | 86 | 1022.3 |
| 20260901233037 | 55 | 274 | 0.9 | 2.6 | 0.00 | 0.00 | 0.00 | 85 | 1022.4 |
| 20260901231540 | 55 | 274 | 0.9 | 1.7 | 0.00 | 0.00 | 0.00 | 85 | 1022.3 |
| 20260901231019 | 55 | 274 | 0.0 | 1.7 | 0.00 | 0.00 | 0.00 | 85 | 1022.4 |
| 20260901230519 | 55 | 274 | 0.9 | 1.7 | 0.00 | 0.00 | 0.00 | 84 | 1022.3 |
| 20260901230040 | 55 | 274 | 0.9 | 1.7 | 0.00 | 0.00 | 0.00 | 84 | 1022.3 |
| 20260901225521 | 56 | 274 | 0.9 | 2.6 | 0.00 | 0.00 | 0.00 | 84 | 1022.3 |
| 20260901225021 | 56 | 274 | 0.9 | 2.6 | 0.00 | 0.00 | 0.00 | 83 | 1022.4 |
| 20260901224540 | 56 | 274 | 0.9 | 1.7 | 0.00 | 0.00 | 0.00 | 83 | 1022.5 |
| 20260901224023 | 56 | 274 | 0.9 | 1.7 | 0.00 | 0.00 | 0.00 | 82 | 1022.4 |
| 20260901223519 | 57 | 274 | 0.9 | 2.6 | 0.00 | 0.00 | 0.00 | 81 | 1022.5 |
| 20260901223041 | 57 | 274 | 0.9 | 2.6 | 0.00 | 0.00 | 0.00 | 81 | 1022.4 |
| 20260901222518 | 57 | 274 | 0.9 | 1.7 | 0.00 | 0.00 | 0.00 | 80 | 1022.4 |
| 20260901222021 | 58 | 274 | 0.0 | 1.7 | 0.00 | 0.00 | 0.00 | 80 | 1022.3 |
| 20260901221555 | 58 | 274 | 0.9 | 1.7 | 0.00 | 0.00 | 0.00 | 80 | 1022.4 |
| 20260901221019 | 58 | 274 | 0.9 | 1.7 | 0.00 | 0.00 | 0.00 | 80 | 1022.4 |
| 20260901220519 | 58 | 274 | 0.9 | 1.7 | 0.00 | 0.00 | 0.00 | 79 | 1022.3 |
| 20260901220050 | 59 | 274 | 0.9 | 1.7 | 0.00 | 0.00 | 0.00 | 78 | 1022.6 |
| 20260901215517 | 59 | 274 | 0.0 | 2.6 | 0.00 | 0.00 | 0.00 | 78 | 1022.5 |
| 20260901215017 | 59 | 274 | 0.0 | 3.5 | 0.00 | 0.00 | 0.00 | 77 | 1022.5 |
| 20260901214537 | 60 | 275 | 0.0 | 3.5 | 0.00 | 0.00 | 0.00 | 77 | 1022.5 |
| 20260901214018 | 60 | 276 | 0.9 | 2.6 | 0.00 | 0.00 | 0.00 | 77 | 1022.6 |
| 20260901213521 | 60 | 276 | 0.9 | 2.6 | 0.00 | 0.00 | 0.00 | 77 | 1022.7 |
| 20260901213036 | 60 | 275 | 0.9 | 2.6 | 0.00 | 0.00 | 0.00 | 77 | 1022.5 |
| 20260901212519 | 60 | 275 | 0.9 | 5.2 | 0.00 | 0.00 | 0.00 | 76 | 1022.5 |
| 20260901212024 | 60 | 280 | 0.9 | 5.2 | 0.00 | 0.00 | 0.00 | 77 | 1022.5 |
| 20260901211538 | 60 | 266 | 1.7 | 5.2 | 0.00 | 0.00 | 0.00 | 77 | 1022.7 |
| 20260901211021 | 60 | 281 | 1.7 | 6.1 | 0.00 | 0.00 | 0.00 | 77 | 1022.7 |
| 20260901210522 | 60 | 287 | 1.7 | 6.1 | 0.00 | 0.00 | 0.00 | 77 | 1022.8 |
| 20260901210040 | 60 | 275 | 1.7 | 6.1 | 0.00 | 0.00 | 0.00 | 77 | 1022.7 |
| 20260901205516 | 60 | 257 | 0.9 | 6.1 | 0.00 | 0.00 | 0.00 | 78 | 1022.8 |
| 20260901205020 | 60 | 270 | 1.7 | 6.1 | 0.00 | 0.00 | 0.00 | 78 | 1022.7 |
| 20260901204541 | 59 | 295 | 1.7 | 2.6 | 0.00 | 0.00 | 0.00 | 78 | 1022.7 |
| 20260901204017 | 59 | 289 | 0.9 | 3.5 | 0.00 | 0.00 | 0.00 | 78 | 1022.6 |
| 20260901203518 | 59 | 289 | 0.9 | 3.5 | 0.00 | 0.00 | 0.00 | 79 | 1022.7 |
| 20260901203037 | 59 | 291 | 0.9 | 3.5 | 0.00 | 0.00 | 0.00 | 79 | 1022.6 |
| 20260901202521 | 59 | 268 | 0.0 | 1.7 | 0.00 | 0.00 | 0.00 | 79 | 1022.5 |
| 20260901202019 | 59 | 268 | 0.0 | 1.7 | 0.00 | 0.00 | 0.00 | 79 | 1022.6 |
| 20260901201536 | 59 | 0 | 0.0 | 2.6 | 0.00 | 0.00 | 0.00 | 79 | 1022.5 |
| 20260901201023 | 59 | 0 | 0.0 | 2.6 | 0.00 | 0.00 | 0.00 | 79 | 1022.5 |
| 20260901200518 | 59 | 268 | 0.0 | 1.7 | 0.00 | 0.00 | 0.00 | 79 | 1022.5 |
| 20260901200039 | 59 | 0 | 0.0 | 0.0 | 0.00 | 0.00 | 0.00 | 78 | 1022.4 |
| 20260901195518 | 59 | 0 | 0.0 | 0.0 | 0.00 | 0.00 | 0.00 | 78 | 1022.4 |
| 20260901195021 | 59 | 0 | 0.0 | 0.0 | 0.00 | 0.00 | 0.00 | 77 | 1022.4 |
| 20260901194538 | 59 | 0 | 0.0 | 0.0 | 0.00 | 0.00 | 0.00 | 77 | 1022.4 |
| 20260901194017 | 60 | 0 | 0.0 | 0.0 | 0.00 | 0.00 | 0.00 | 76 | 1022.4 |
| 20260901193518 | 60 | 0 | 0.0 | 0.0 | 0.00 | 0.00 | 0.00 | 76 | 1022.3 |
| 20260901193041 | 60 | 0 | 0.0 | 0.0 | 0.00 | 0.00 | 0.00 | 75 | 1022.3 |
| 20260901192517 | 61 | 0 | 0.0 | 0.0 | 0.00 | 0.00 | 0.00 | 74 | 1022.1 |
| 20260901192019 | 61 | 0 | 0.0 | 0.0 | 0.00 | 0.00 | 0.00 | 74 | 1022.2 |
| 20260901191555 | 61 | 0 | 0.0 | 0.0 | 0.00 | 0.00 | 0.00 | 73 | 1022.1 |
| 20260901191023 | 62 | 0 | 0.0 | 0.0 | 0.00 | 0.00 | 0.00 | 72 | 1022.0 |
| 20260901190523 | 62 | 0 | 0.0 | 0.9 | 0.00 | 0.00 | 0.00 | 72 | 1022.0 |
| 20260901190041 | 62 | 0 | 0.0 | 2.6 | 0.00 | 0.00 | 0.00 | 71 | 1022.0 |
| 20260901185521 | 63 | 0 | 0.0 | 2.6 | 0.00 | 0.00 | 0.00 | 71 | 1022.1 |
| 20260901185020 | 63 | 0 | 0.0 | 0.0 | 0.00 | 0.00 | 0.00 | 70 | 1022.0 |
| 20260901184545 | 64 | 0 | 0.0 | 0.0 | 0.00 | 0.00 | 0.00 | 69 | 1021.8 |
| 20260901184129 | 64 | 0 | 0.0 | 0.0 | 0.00 | 0.00 | 0.00 | 69 | 1021.9 |
| 20260901183520 | 65 | 0 | 0.0 | 1.7 | 0.00 | 0.00 | 0.00 | 68 | 1021.7 |
| 20260901183046 | 65 | 0 | 0.0 | 1.7 | 0.00 | 0.00 | 0.00 | 67 | 1021.6 |
| 20260901182534 | 66 | 0 | 0.0 | 1.7 | 0.00 | 0.00 | 0.00 | 67 | 1021.7 |
| 20260901182023 | 66 | 0 | 0.0 | 2.6 | 0.00 | 0.00 | 0.00 | 67 | 1021.7 |
| 20260901181538 | 66 | 269 | 0.0 | 3.5 | 0.00 | 0.00 | 0.00 | 66 | 1021.8 |
| 20260901181021 | 67 | 269 | 0.9 | 3.5 | 0.00 | 0.00 | 0.00 | 66 | 1021.7 |
| 20260901180524 | 67 | 273 | 0.9 | 3.5 | 0.00 | 0.00 | 0.00 | 65 | 1021.8 |
| 20260901180040 | 68 | 260 | 0.9 | 3.5 | 0.00 | 0.00 | 0.00 | 65 | 1021.8 |
| 20260901175519 | 68 | 258 | 0.0 | 3.5 | 0.00 | 0.00 | 0.00 | 63 | 1021.8 |
| 20260901175023 | 68 | 0 | 0.0 | 0.9 | 0.00 | 0.00 | 0.00 | 63 | 1021.8 |
| 20260901174547 | 69 | 0 | 0.0 | 2.6 | 0.00 | 0.00 | 0.00 | 63 | 1021.6 |
| 20260901174019 | 69 | 0 | 0.0 | 3.5 | 0.00 | 0.00 | 0.00 | 62 | 1021.7 |
| 20260901173517 | 69 | 258 | 0.9 | 3.5 | 0.00 | 0.00 | 0.00 | 62 | 1021.7 |
| 20260901173050 | 69 | 258 | 1.7 | 8.7 | 0.00 | 0.00 | 0.00 | 62 | 1021.6 |
| 20260901172521 | 69 | 256 | 1.7 | 8.7 | 0.00 | 0.00 | 0.00 | 61 | 1021.7 |
| 20260901172020 | 70 | 223 | 1.7 | 5.2 | 0.00 | 0.00 | 0.00 | 60 | 1021.7 |
| 20260901171542 | 70 | 285 | 1.7 | 6.1 | 0.00 | 0.00 | 0.00 | 59 | 1021.6 |
| 20260901171019 | 70 | 293 | 1.7 | 7.0 | 0.00 | 0.00 | 0.00 | 59 | 1021.7 |
| 20260901170522 | 71 | 291 | 1.7 | 7.0 | 0.00 | 0.00 | 0.00 | 59 | 1021.6 |
| 20260901170044 | 71 | 298 | 0.9 | 7.0 | 0.00 | 0.00 | 0.00 | 57 | 1021.6 |
| 20260901165519 | 71 | 285 | 1.7 | 7.0 | 0.00 | 0.00 | 0.00 | 57 | 1021.6 |
| 20260901165020 | 71 | 239 | 1.7 | 7.8 | 0.00 | 0.00 | 0.00 | 57 | 1021.6 |
| 20260901164543 | 71 | 256 | 2.6 | 7.8 | 0.00 | 0.00 | 0.00 | 57 | 1021.6 |
| 20260901164020 | 71 | 246 | 2.6 | 7.0 | 0.00 | 0.00 | 0.00 | 58 | 1021.5 |
| 20260901163523 | 71 | 258 | 1.7 | 9.6 | 0.00 | 0.00 | 0.00 | 57 | 1021.4 |
| 20260901163039 | 71 | 276 | 3.5 | 9.6 | 0.00 | 0.00 | 0.00 | 57 | 1021.3 |
| 20260901162517 | 71 | 290 | 2.6 | 8.7 | 0.00 | 0.00 | 0.00 | 57 | 1021.3 |
| 20260901162022 | 72 | 295 | 3.5 | 8.7 | 0.00 | 0.00 | 0.00 | 58 | 1021.3 |
| 20260901161551 | 71 | 281 | 3.5 | 7.8 | 0.00 | 0.00 | 0.00 | 57 | 1021.4 |
| 20260901161021 | 71 | 287 | 1.7 | 7.0 | 0.00 | 0.00 | 0.00 | 58 | 1021.4 |
| 20260901160523 | 71 | 275 | 1.7 | 8.7 | 0.00 | 0.00 | 0.00 | 58 | 1021.4 |
| 20260901160035 | 71 | 231 | 3.5 | 8.7 | 0.00 | 0.00 | 0.00 | 59 | 1021.3 |
| 20260901155519 | 71 | 273 | 1.7 | 7.0 | 0.00 | 0.00 | 0.00 | 59 | 1021.4 |
| 20260901155020 | 71 | 271 | 1.7 | 8.7 | 0.00 | 0.00 | 0.00 | 57 | 1021.5 |
| 20260901154552 | 72 | 285 | 4.3 | 11.3 | 0.00 | 0.00 | 0.00 | 57 | 1021.6 |
| 20260901154016 | 72 | 185 | 3.5 | 11.3 | 0.00 | 0.00 | 0.00 | 58 | 1021.4 |
| 20260901153522 | 73 | 217 | 2.6 | 7.8 | 0.00 | 0.00 | 0.00 | 59 | 1021.4 |
| 20260901153045 | 72 | 266 | 3.5 | 7.8 | 0.00 | 0.00 | 0.00 | 58 | 1021.4 |
| 20260901152518 | 72 | 341 | 3.5 | 11.3 | 0.00 | 0.00 | 0.00 | 58 | 1021.5 |
| 20260901152018 | 73 | 252 | 4.3 | 11.3 | 0.00 | 0.00 | 0.00 | 56 | 1021.4 |
| 20260901151540 | 73 | 269 | 2.6 | 10.4 | 0.00 | 0.00 | 0.00 | 57 | 1021.4 |
| 20260901151019 | 73 | 288 | 3.5 | 9.6 | 0.00 | 0.00 | 0.00 | 57 | 1021.4 |
| 20260901150518 | 73 | 301 | 2.6 | 8.7 | 0.00 | 0.00 | 0.00 | 56 | 1021.4 |
| 20260901150042 | 73 | 266 | 4.3 | 8.7 | 0.00 | 0.00 | 0.00 | 55 | 1021.3 |
| 20260901145516 | 73 | 286 | 1.7 | 8.7 | 0.00 | 0.00 | 0.00 | 57 | 1021.4 |
| 20260901145021 | 73 | 298 | 3.5 | 8.7 | 0.00 | 0.00 | 0.00 | 58 | 1021.4 |
| 20260901144545 | 73 | 131 | 3.5 | 11.3 | 0.00 | 0.00 | 0.00 | 57 | 1021.3 |
| 20260901144022 | 73 | 256 | 5.2 | 11.3 | 0.00 | 0.00 | 0.00 | 57 | 1021.4 |
| 20260901143519 | 72 | 231 | 3.5 | 10.4 | 0.00 | 0.00 | 0.00 | 59 | 1021.5 |
| 20260901143045 | 72 | 233 | 5.2 | 10.4 | 0.00 | 0.00 | 0.00 | 59 | 1021.5 |
| 20260901142521 | 72 | 291 | 3.5 | 9.6 | 0.00 | 0.00 | 0.00 | 60 | 1021.5 |
| 20260901142020 | 72 | 251 | 3.5 | 11.3 | 0.00 | 0.00 | 0.00 | 61 | 1021.4 |
| 20260901141545 | 72 | 334 | 5.2 | 11.3 | 0.00 | 0.00 | 0.00 | 59 | 1021.4 |
| 20260901141019 | 72 | 337 | 5.2 | 8.7 | 0.00 | 0.00 | 0.00 | 62 | 1021.4 |
| 20260901140518 | 72 | 278 | 3.5 | 8.7 | 0.00 | 0.00 | 0.00 | 62 | 1021.4 |
| 20260901140035 | 71 | 0 | 2.6 | 8.7 | 0.00 | 0.00 | 0.00 | 61 | 1021.5 |
| 20260901135518 | 71 | 237 | 3.5 | 8.7 | 0.00 | 0.00 | 0.00 | 61 | 1021.6 |
| 20260901135023 | 71 | 241 | 3.5 | 8.7 | 0.00 | 0.00 | 0.00 | 62 | 1021.5 |
| 20260901134535 | 71 | 236 | 2.6 | 7.8 | 0.00 | 0.00 | 0.00 | 63 | 1021.5 |
| 20260901134020 | 71 | 277 | 3.5 | 8.7 | 0.00 | 0.00 | 0.00 | 62 | 1021.5 |
| 20260901133521 | 71 | 307 | 3.5 | 12.2 | 0.00 | 0.00 | 0.00 | 63 | 1021.5 |
| 20260901133035 | 71 | 270 | 4.3 | 12.2 | 0.00 | 0.00 | 0.00 | 63 | 1021.5 |
| 20260901132521 | 71 | 229 | 4.3 | 9.6 | 0.00 | 0.00 | 0.00 | 63 | 1021.5 |
| 20260901132020 | 71 | 288 | 4.3 | 9.6 | 0.00 | 0.00 | 0.00 | 64 | 1021.6 |
| 20260901131536 | 71 | 266 | 6.1 | 9.6 | 0.00 | 0.00 | 0.00 | 64 | 1021.6 |
| 20260901131023 | 70 | 209 | 4.3 | 9.6 | 0.00 | 0.00 | 0.00 | 66 | 1021.8 |
| 20260901130520 | 70 | 274 | 3.5 | 10.4 | 0.00 | 0.00 | 0.00 | 65 | 1021.8 |
| 20260901130036 | 71 | 295 | 4.3 | 10.4 | 0.00 | 0.00 | 0.00 | 65 | 1021.9 |
| 20260901125519 | 71 | 247 | 2.6 | 8.7 | 0.00 | 0.00 | 0.00 | 62 | 1021.8 |
| 20260901125019 | 72 | 249 | 4.3 | 9.6 | 0.00 | 0.00 | 0.00 | 61 | 1021.7 |
| 20260901124540 | 72 | 293 | 3.5 | 9.6 | 0.00 | 0.00 | 0.00 | 63 | 1021.6 |
| 20260901124019 | 73 | 326 | 5.2 | 11.3 | 0.00 | 0.00 | 0.00 | 62 | 1021.7 |
| 20260901123519 | 73 | 262 | 5.2 | 11.3 | 0.00 | 0.00 | 0.00 | 64 | 1021.6 |
| 20260901123040 | 73 | 235 | 4.3 | 12.2 | 0.00 | 0.00 | 0.00 | 64 | 1021.8 |
| 20260901122518 | 73 | 243 | 6.1 | 12.2 | 0.00 | 0.00 | 0.00 | 62 | 1021.7 |
| 20260901122017 | 72 | 219 | 4.3 | 9.6 | 0.00 | 0.00 | 0.00 | 65 | 1021.8 |
| 20260901121538 | 71 | 255 | 3.5 | 8.7 | 0.00 | 0.00 | 0.00 | 67 | 1021.7 |
| 20260901121019 | 71 | 241 | 4.3 | 8.7 | 0.00 | 0.00 | 0.00 | 66 | 1021.7 |
| 20260901120519 | 71 | 310 | 4.3 | 8.7 | 0.00 | 0.00 | 0.00 | 65 | 1021.8 |
| 20260901120038 | 72 | 303 | 4.3 | 9.6 | 0.00 | 0.00 | 0.00 | 65 | 1021.8 |
| 20260901115519 | 72 | 305 | 1.7 | 9.6 | 0.00 | 0.22 | 0.00 | 65 | 1021.7 |
| 20260901115020 | 72 | 317 | 4.3 | 13.0 | 0.00 | 0.22 | 0.00 | 64 | 1021.7 |
| 20260901114555 | 71 | 234 | 4.3 | 13.0 | 0.00 | 0.22 | 0.00 | 65 | 1021.7 |
| 20260901114020 | 71 | 329 | 6.1 | 12.2 | 0.00 | 0.22 | 0.00 | 64 | 1021.8 |
| 20260901113521 | 71 | 322 | 3.5 | 13.0 | 0.00 | 0.22 | 0.00 | 66 | 1021.7 |
| 20260901113036 | 71 | 322 | 5.2 | 13.0 | 0.00 | 0.22 | 0.00 | 66 | 1021.8 |
| 20260901112519 | 71 | 214 | 5.2 | 13.0 | 0.00 | 0.22 | 0.00 | 66 | 1021.7 |
| 20260901112019 | 71 | 247 | 5.2 | 11.3 | 0.00 | 0.22 | 0.00 | 66 | 1022.0 |
| 20260901111544 | 71 | 281 | 5.2 | 11.3 | 0.00 | 0.22 | 0.00 | 68 | 1021.8 |
| 20260901111020 | 70 | 303 | 5.2 | 11.3 | 0.00 | 0.22 | 0.00 | 69 | 1021.9 |
| 20260901110519 | 70 | 283 | 4.3 | 11.3 | 0.00 | 0.22 | 0.00 | 72 | 1022.0 |
| 20260901110040 | 70 | 315 | 5.2 | 11.3 | 0.00 | 0.22 | 0.00 | 71 | 1022.0 |
| 20260901105518 | 70 | 301 | 4.3 | 10.4 | 0.00 | 0.28 | 0.00 | 71 | 1022.0 |
| 20260901105023 | 69 | 242 | 4.3 | 10.4 | 0.00 | 0.28 | 0.00 | 73 | 1022.0 |
| 20260901104537 | 69 | 216 | 5.2 | 10.4 | 0.00 | 0.28 | 0.00 | 73 | 1022.0 |
| 20260901104020 | 69 | 245 | 6.1 | 11.3 | 0.00 | 0.28 | 0.00 | 74 | 1022.0 |
| 20260901103519 | 68 | 289 | 3.5 | 11.3 | 0.00 | 0.28 | 0.00 | 76 | 1022.0 |
| 20260901103041 | 67 | 270 | 2.6 | 9.6 | 0.00 | 0.28 | 0.00 | 78 | 1021.8 |
| 20260901102518 | 66 | 304 | 4.3 | 9.6 | 0.00 | 0.28 | 0.00 | 80 | 1021.9 |
| 20260901102018 | 66 | 230 | 3.5 | 8.7 | 0.00 | 0.28 | 0.00 | 81 | 1021.9 |
| 20260901101539 | 65 | 253 | 1.7 | 7.0 | 0.00 | 0.28 | 0.00 | 80 | 1022.0 |
| 20260901101025 | 65 | 231 | 2.6 | 7.0 | 0.00 | 0.28 | 0.00 | 81 | 1022.2 |
| 20260901100518 | 65 | 0 | 1.7 | 7.0 | 0.00 | 0.28 | 0.00 | 81 | 1022.1 |
| 20260901100037 | 65 | 261 | 4.3 | 9.6 | 0.00 | 0.28 | 0.00 | 80 | 1022.1 |
| 20260901095520 | 65 | 299 | 2.6 | 12.2 | 0.00 | 0.28 | 0.00 | 80 | 1022.1 |
| 20260901095020 | 66 | 275 | 5.2 | 12.2 | 0.00 | 0.28 | 0.00 | 79 | 1022.1 |
| 20260901094540 | 66 | 208 | 3.5 | 11.3 | 0.00 | 0.28 | 0.00 | 80 | 1022.0 |
| 20260901094019 | 65 | 233 | 2.6 | 10.4 | 0.00 | 0.28 | 0.00 | 82 | 1022.2 |
| 20260901093518 | 65 | 251 | 1.7 | 7.0 | 0.00 | 0.28 | 0.00 | 82 | 1022.1 |
| 20260901093038 | 65 | 306 | 3.5 | 7.0 | 0.00 | 0.28 | 0.00 | 81 | 1022.1 |
| 20260901092520 | 65 | 308 | 0.9 | 7.0 | 0.00 | 0.28 | 0.00 | 82 | 1022.0 |
| 20260901092021 | 65 | 264 | 2.6 | 7.0 | 0.00 | 0.28 | 0.00 | 82 | 1021.9 |
| 20260901091536 | 65 | 262 | 1.7 | 7.0 | 0.00 | 0.28 | 0.00 | 84 | 1022.0 |
| 20260901091020 | 64 | 247 | 2.6 | 11.3 | 0.00 | 0.28 | 0.00 | 84 | 1022.0 |
| 20260901090518 | 64 | 306 | 4.3 | 11.3 | 0.00 | 0.28 | 0.00 | 84 | 1021.9 |
| 20260901090046 | 64 | 226 | 4.3 | 11.3 | 0.00 | 0.28 | 0.00 | 86 | 1022.0 |
| 20260901085521 | 63 | 277 | 1.7 | 7.0 | 0.00 | 0.29 | 0.00 | 86 | 1021.9 |
| 20260901085019 | 63 | 208 | 3.5 | 6.1 | 0.00 | 0.29 | 0.00 | 86 | 1022.0 |
| 20260901084543 | 63 | 218 | 0.9 | 6.1 | 0.00 | 0.29 | 0.00 | 86 | 1022.0 |
| 20260901084017 | 62 | 287 | 2.6 | 7.0 | 0.00 | 0.29 | 0.00 | 86 | 1022.0 |
| 20260901083517 | 62 | 248 | 1.7 | 7.0 | 0.00 | 0.29 | 0.00 | 86 | 1021.8 |
| 20260901083038 | 62 | 239 | 1.7 | 9.6 | 0.00 | 0.29 | 0.00 | 87 | 1021.7 |
| 20260901082520 | 62 | 318 | 0.9 | 9.6 | 0.00 | 0.29 | 0.00 | 87 | 1021.7 |
| 20260901082017 | 62 | 250 | 2.6 | 9.6 | 0.00 | 0.29 | 0.00 | 87 | 1021.7 |
| 20260901081536 | 62 | 262 | 1.7 | 7.0 | 0.00 | 0.29 | 0.00 | 88 | 1021.6 |
| 20260901081019 | 62 | 255 | 2.6 | 6.1 | 0.00 | 0.29 | 0.00 | 88 | 1021.6 |
| 20260901080519 | 62 | 280 | 0.9 | 4.3 | 0.00 | 0.29 | 0.00 | 89 | 1021.6 |
| 20260901080038 | 61 | 220 | 1.7 | 5.2 | 0.00 | 0.29 | 0.00 | 89 | 1021.4 |
| 20260901075520 | 61 | 0 | 0.0 | 8.7 | 0.00 | 0.30 | 0.00 | 89 | 1021.5 |
| 20260901075022 | 61 | 220 | 1.7 | 8.7 | 0.00 | 0.30 | 0.00 | 89 | 1021.5 |
| 20260901074544 | 61 | 254 | 0.9 | 4.3 | 0.00 | 0.30 | 0.00 | 89 | 1021.4 |
| 20260901074018 | 60 | 208 | 0.9 | 7.8 | 0.00 | 0.30 | 0.00 | 89 | 1021.4 |
| 20260901073519 | 60 | 287 | 1.7 | 7.8 | 0.00 | 0.30 | 0.00 | 90 | 1021.3 |